Location: Canet
(43.3261°N, 5.3723°E)
Time: 15:21:32
(UTC+00:00)

Daily predictions for brighter satellites

Satellite Brightness Start Highest point End
(mag) Time Altitude Azimuth Time Altitude Azimuth Time Altitude Azimuth
Nadezhda 4 Rocket 4.4 17:01:55 10° SSE 17:07:43 42° E 17:13:29 10° NNE
Meteor 1-24 Rocket 3.9 17:02:57 10° SSW 17:08:16 72° W 17:13:34 10° N
SeaSat 1 4.2 17:05:09 10° N 17:09:18 28° NW 17:13:26 10° WSW
ATLAS 2AS CENTAUR R/B 4.5 17:03:43 10° W 17:10:16 27° NNW 17:16:41 10° NNE
Cosmos 1726 Rocket 3.6 17:08:10 10° N 17:12:35 89° WSW 17:16:59 10° S
Aureole 3 3.7 17:14:35 10° NNE 17:17:18 24° ENE 17:19:49 10° SE
Cosmos 1626 Rocket 4.3 17:16:13 10° SSE 17:20:04 31° E 17:23:59 10° NNE
Cosmos 2278 Rocket 3.8 17:23:02 10° SE 17:25:59 15° E 17:28:30 11° ENE
ATLAS 5 CENTAUR R/B 3.8 17:25:23 10° WNW 17:28:07 16° NNW 17:31:04 10° N
Okean 1-7 Rocket 3.6 17:23:42 10° S 17:28:13 75° E 17:32:48 10° NNE
SMAP 4.0 17:24:58 10° S 17:29:29 53° W 17:34:03 10° NNW
CZ-4B R/B 3.7 17:24:23 10° S 17:29:54 67° WSW 17:35:32 10° NNW
Iridium 4 Rocket 4.4 17:29:42 10° NNE 17:34:22 27° ENE 17:38:41 10° SE
USA 234 4.5 17:29:43 10° NE 17:34:58 27° N 17:40:12 10° NW
Lacrosse 5 1.9 17:30:03 10° NW 17:35:07 86° SW 17:40:10 10° SE
Cosmos 923 Rocket 4.1 17:30:48 10° NNW 17:36:05 58° ENE 17:41:18 10° SE
Cosmos 1939 Rocket 2.8 17:32:32 10° SSE 17:36:39 81° ENE 17:40:44 10° N
Cosmos 1898 Rocket 4.0 17:32:49 10° S 17:37:40 39° ESE 17:42:31 10° NE
COSMO-SKYMED 1 2.6 17:34:41 10° NNE 17:39:00 62° E 17:43:17 10° S
CZ-4C R/B 4.5 17:37:26 10° NW 17:40:36 15° NNW 17:44:05 10° NNE
Cosmos 1680 Rocket 3.7 17:36:49 10° N 17:41:54 49° ENE 17:46:56 10° SE
CREW DRAGON DEMO-1 DEB 2.5 17:39:23 10° NW 17:42:16 77° NNE 17:44:38 14° ESE
Cosmos 2026 Rocket 4.4 17:38:21 10° SSE 17:43:53 38° E 17:49:32 10° NNE
Aureole 3 Rocket 3.7 17:41:52 10° NNE 17:44:18 20° ENE 17:47:02 10° SE
Feng Yun 1-1 Rocket 4.2 17:40:36 10° SSE 17:46:01 79° ENE 17:51:36 10° NNW
ISS -2.5 17:44:07 10° W 17:47:13 33° NNW 17:49:25 16° NE
CZ-2D R/B 3.1 17:43:28 10° SSE 17:47:17 69° ENE 17:51:07 10° N
NOSS 2-1 (E) 3.2 17:44:38 10° SSW 17:47:53 46° ESE 17:49:50 21° ENE
IRS-1C Rocket 4.0 17:46:16 10° SSE 17:51:27 65° ENE 17:56:40 10° N
Cosmos 1340 3.1 17:48:04 10° SSE 17:51:34 39° E 17:54:46 12° NNE
H-2A R/B 2.3 17:47:03 10° SE 17:51:44 41° ENE 17:56:32 10° N
Meteor 1-21 Rocket 4.1 17:47:23 10° S 17:52:53 79° E 17:58:28 10° NNE
ERS-2 2.2 17:50:44 10° NNE 17:54:18 50° ESE 17:57:49 10° S
Cosmos 1455 2.3 17:51:44 10° N 17:55:34 81° W 17:59:24 10° S
CZ-4 R/B 1.5 17:53:21 10° SSE 17:57:18 51° ENE 18:01:13 10° N
Cosmos-2242 4.0 17:54:01 10° NNE 17:57:35 25° ENE 17:59:06 20° ESE
Cosmos 1602 Rocket 3.5 17:57:29 10° S 18:01:46 64° E 18:06:07 10° NNE
ARGOS 3.6 17:57:29 10° SE 18:02:23 38° ENE 18:07:19 10° N
H-2A R/B 4.1 17:59:50 10° N 18:03:38 28° WNW 18:07:20 10° SW
COSMOS 2455 4.2 17:58:43 10° WSW 18:04:10 35° NW 18:09:41 10° NNE
Okean O Rocket 3.8 18:00:55 10° SSW 18:04:49 30° W 18:08:43 10° NW
YAOGAN 1 2.6 18:02:15 10° SSE 18:06:29 56° ENE 18:10:44 10° N
Cosmos 1937 Rocket 3.7 18:01:27 10° S 18:06:34 51° ESE 18:10:47 15° NNE
Okean-O 2.6 18:04:43 10° SSE 18:09:05 63° ENE 18:13:29 10° N
Cosmos 2195 Rocket 4.4 18:04:07 10° S 18:10:24 73° E 18:16:44 10° NNE
PSLV R/B 3.9 18:06:55 10° NNE 18:11:10 70° ESE 18:15:20 10° S
CZ-2C R/B 3.4 18:10:30 21° NE 18:13:24 32° E 18:18:23 10° SSE
Cosmos 2344 4.4 18:04:25 10° NNW 18:13:33 58° NE 18:26:10 10° SE
CZ-2C R/B 3.4 18:08:43 10° S 18:14:03 75° WSW 18:19:43 10° NNW
SJ 16-02 2.9 18:10:43 10° SW 18:14:47 35° WNW 18:18:50 10° N
SJ-11-01 4.2 18:12:19 10° SSE 18:16:56 62° ENE 18:21:34 10° N
Cosmos 1825 Rocket 4.0 18:14:10 10° SSE 18:18:11 38° E 18:18:30 37° E
Cosmos 2112 Rocket 3.9 18:15:28 10° NNW 18:20:44 90° WSW 18:25:56 10° SSE
Cosmos 1428 Rocket 4.4 18:15:35 10° S 18:21:49 73° E 18:28:09 10° NNE
Cosmos 1812 Rocket 3.4 18:17:32 10° N 18:21:58 87° E 18:26:18 10° S
NOSS 3-1 (C) 4.0 18:15:36 10° NW 18:23:11 77° NE 18:31:57 10° SE
CSL-04 Debris 4.1 18:19:01 10° SSE 18:24:18 58° ENE 18:29:35 10° N
CZ-4B R/B 3.6 18:22:42 10° NNW 18:25:30 25° WNW 18:28:15 10° SW
Cosmos 44 3.8 18:21:34 10° SW 18:26:15 57° NW 18:29:51 19° NNE
Cosmos 1703 4.0 18:23:10 10° SSW 18:26:57 52° W 18:30:46 10° N
SAR-Lupe-4 3.6 18:24:42 20° N 18:27:08 77° WNW 18:30:41 10° SSW
Cosmos 1627 Rocket 4.4 18:21:29 10° S 18:27:40 87° E 18:33:58 10° N
X-37B 0.9 18:26:28 10° W 18:29:26 58° NNW 18:29:26 58° NNW
COSMOS 2406 3.3 18:25:48 10° NNW 18:31:30 56° ENE 18:34:24 28° SE
SL-08 RB Rocket 4.1 18:32:25 41° NE 18:32:25 41° NE 18:35:56 10° N
Cosmos 1833 Rocket 2.8 18:27:38 10° NNW 18:33:07 50° ENE 18:34:40 39° ESE
NOSS 2-1 (C) 4.0 18:33:58 10° WSW 18:37:08 39° NW 18:37:54 33° NNW
Cosmos 1092 Rocket 4.4 18:33:37 10° SSW 18:39:44 63° W 18:45:51 10° N
BREEZE-M DEB (TANK) 4.3 18:37:50 10° NW 18:38:32 17° NW 18:38:32 17° NW
Cosmos 1346 Rocket 3.6 18:37:42 10° S 18:40:14 37° SSE 18:40:14 37° SSE
USA 267 4.0 18:41:51 31° ESE 18:42:14 32° SE 18:47:57 10° S
USA 229 DEB 3.8 18:35:02 10° NW 18:42:23 75° NE 18:47:28 24° SE
USA 229 3.8 18:35:08 10° NW 18:42:29 74° NE 18:47:25 25° SE
NOSS 2-1 (D) 4.2 18:40:00 10° WSW 18:43:04 34° NW 18:43:40 31° NNW
Cosmos 2082 Rocket 3.0 18:38:51 10° N 18:43:03 33° NNE 18:43:03 33° NNE
Cosmos 1689 Rocket 3.7 18:46:58 32° WNW 18:46:58 32° WNW 18:49:32 10° SW
Helios 1A Rocket 3.5 18:47:54 10° S 18:51:58 58° W 18:56:04 10° NNW
NOSS 3-1 (A) 4.0 18:50:22 10° NW 18:58:00 80° NE 19:02:47 30° SE
Cosmos 405 4.5 19:00:43 10° NNW 19:03:24 35° WNW 19:03:24 35° WNW
Cosmos 2278 Rocket 2.2 19:03:37 10° SSW 19:09:17 81° WNW 19:10:25 58° N
CSL-04 Rocket 4.1 19:05:11 10° S 19:10:32 61° WSW 19:15:59 10° NNW
USA 234 4.0 19:16:51 36° NNE 19:16:51 36° NNE 19:22:39 10° NW
ISS -0.5 19:22:11 10° NW 19:22:23 11° NW 19:22:23 11° NW
H-2A R/B 4.1 19:27:15 10° SSW 19:31:18 25° W 19:35:28 10° NW
Cosmos 1655 Rocket 4.3 19:38:47 10° SSW 19:53:32 - N 19:44:08 60° WSW
CZ-2C R/B 4.0 19:51:59 30° NNW 19:53:41 37° WNW 19:58:47 10° SW
CZ-3B R/B 4.4 20:03:27 10° WNW 20:07:45 42° SW 20:23:37 10° SSE
Cosmos 2082 Rocket 4.4 20:22:57 10° NW 20:24:57 21° NW 20:24:57 21° NW
